Regional Weather Roundup
Issued by NWS

Home | Current Version | Previous Version | Text Only | Print | Product List | Glossary On
Versions: 1 2 3 4 5 6 7 8 9 10 11 12 13 14 15 16 17 18 19 20 21 22 23 24 25 26 27
000
ASUS45 KBOU 161707
RWRCO

WEATHER ROUNDUP FOR COLORADO
NATIONAL WEATHER SERVICE DENVER/BOULDER CO
1000 AM MST MON JAN 16 2017

NOTE: "FAIR" INDICATES FEW OR NO CLOUDS BELOW 12000 FEET WITH NO
SIGNIFICANT WEATHER AND/OR OBSTRUCTIONS TO VISIBILITY.

COZ001>005-013-030-031-161800-
...NORTHWEST COLORADO...

CITY           SKY/WX    TMP DP  RH WIND       PRES   REMARKS
CRAIG          CLOUDY    13   8  81 CALM      30.16S
HAYDEN         CLOUDY    16  10  79 W3        30.13R
MEEKER         FAIR      19  14  81 CALM      30.13R
MOUNT WERNER   NOT AVBL
STEAMBOAT SPGS CLOUDY    19  17  93 CALM      30.10S
WALDEN           N/A    N/A N/A N/A CALM      30.08S
$$

COZ006>008-011-161800-
...WEST CENTRAL VALLEYS...

CITY           SKY/WX    TMP DP  RH WIND       PRES   REMARKS
GRAND JUNCTION FAIR      37  22  54 W5        30.07R
MONTROSE       CLOUDY    32  18  56 NW6       30.08  WCI  26
EAGLE          PTSUNNY   30  27  86 CALM      30.08R
RIFLE          PTSUNNY   30  15  53 VRB7      30.09S WCI  23
DELTA          CLOUDY    36  26  67 CALM      30.07R
NUCLA          FAIR      34  28  80 W5        30.05R WCI  30
$$

COZ017>023-064>068-161800-
...SOUTHWEST COLORADO...

CITY           SKY/WX    TMP DP  RH WIND       PRES   REMARKS
DURANGO        CLOUDY    34  31  88 CALM      29.95R
CORTEZ         FAIR      34  29  82 W10       29.97R WCI  26
PAGOSA SPRINGS CLOUDY    33  32  98 S3        29.96R
TELLURIDE      CLOUDY    26  25  99 W3        29.98R
WOLF CREEK PAS CLOUDY    21  21 100 N12G18    30.02R WCI   9
$$

COZ009-010-012-014-032>034-037-058>063-161800-
...CENTRAL COLORADO...

CITY           SKY/WX    TMP DP  RH WIND       PRES   REMARKS
ASPEN          CLOUDY    25  23  92 N8        30.02R WCI  16
BUENA VISTA    CLOUDY    31  28  91 S3        29.99R FOG
COPPER MTN     CLOUDY    25  19  80 MISG      30.02R HAZE
BERTHOUD PASS  NOT AVBL
COTTONWOOD PAS LGT SNOW  30  27  86 SE12      30.00R WCI  21
GUNNISON       CLOUDY    23  21  92 CALM      30.01R
KREMMLING      FLURRIES  32  25  74 SE3       30.07S
LEADVILLE      CLOUDY    28  19  69 N10       29.98R WCI  19
MONARCH PASS   FOG       21  19  93 MISG      30.07S VSB<1/4
SALIDA         CLOUDY    34  33  96 CALM      30.07R VSB 1
SUNLIGHT       CLOUDY    19  19 100 NE7       30.04S FOG     WCI  10
WILKERSON PASS CLOUDY   N/A N/A N/A NE16G25   30.02R
$$

COZ069>075-161800-
...SAN LUIS VALLEY/SANGRE DE CRISTO MOUNTAINS...

CITY           SKY/WX    TMP DP  RH WIND       PRES   REMARKS
ALAMOSA        LGT SNOW  32  31  96 CALM      29.96R FOG
LA VETA PASS   LGT SNOW  28  25  86 S7        29.98R WCI  21
SAGUACHE       PTSUNNY   34  28  80 NW10      29.96R WCI  26
$$

COZ035-036-038>040-161800-
...NORTHERN COLORADO FRONT RANGE...

CITY           SKY/WX    TMP DP  RH WIND       PRES   REMARKS
DENVER INTL AP LGT SNOW  30  27  88 N17       30.09R VSB 3/4 WCI  18
DMNS CITY PARK   N/A     31  30  99 N9        30.12R WCI  22
AURORA         LGT SNOW  29  29 100 N16       30.10R VSB 3/4 WCI  17
FRONT RANGE AP NOT AVBL
ERIE MUNI ARPT LGT SNOW  32  31  94 CALM      30.12R
BOULDER MUN AP LGT SNOW  32  32 100 CALM      30.11R
CENTENNIAL     SNOW      28  27  96 N16       30.09R VSB 1/2 WCI  16
BROOMFIELD     LGT SNOW  32  30  93 N5        30.11R VSB 1   WCI  27
FORT COLLINS   FAIR      36  25  64 NW6       30.10S
LONGMONT       LGT SNOW  36  33  90 SW5       30.13R
$$

COZ041-046-047-076>085-087-088-161800-
...PIKES PEAK/PALMER DIVIDE AND SOUTHERN FOOTHILLS...

CITY           SKY/WX    TMP DP  RH WIND       PRES   REMARKS
COLO. SPRINGS  CLOUDY    31  22  69 NW29G41   30.00R WCI  16
A. F. ACADEMY  MIX PCPN  29  22  77 N25G36    30.01R WCI  14
SCHRIEVER AFB  NOT AVBL
ELLICOTT       CLOUDY   N/A N/A N/A N30G40    29.96R
FALCON         PTSUNNY   28  22  78 N30G46    29.97R WCI  12
FORT CARSON    PTSUNNY   34  25  69 NE26G33   29.98R WCI  21
LIMON          LGT SNOW  29  27  92 N26G32    30.00R FOG     WCI  14
MONUMENT HILL  LGT SNOW  25  23  93 N21G28    30.06R WCI  10
TRINIDAD       SNOW      32  29  88 N12       30.01R VSB 1/4 WCI  23
$$

COZ042>045-048>051-090-091-161800-
...NORTHEAST COLORADO...

CITY           SKY/WX    TMP DP  RH WIND       PRES   REMARKS
GREELEY ARPT   FLURRIES  34  27  75 NW8       30.11R WCI  27
AKRON          SNOW      28  26  92 N24       30.02R VSB 1/2 WCI  14
BURLINGTON     CLOUDY    32  30  92 NW17      29.95R FOG     WCI  21
WRAY           LGT SNOW  34  34 100 N17G25    29.98R WCI  23
STERLING       CLOUDY    36  27  69 N6        30.04R
HOLYOKE        CLOUDY    36  32  87 N23G29    30.00R FOG
FORT MORGAN    FLURRIES  34  25  69 N16G25    30.07R WCI  23
$$

COZ086-089-092>099-161800-
...SOUTHEAST COLORADO...

CITY           SKY/WX    TMP DP  RH WIND       PRES   REMARKS
PUEBLO         LGT SNOW  37  28  70 N21G31    30.00R
LA JUNTA       LGT SNOW  34  31  88 NW14      30.00R FOG     WCI  25
LAMAR          MIX PCPN  34  30  85 NW6       29.95R WCI  29
SPRINGFIELD      N/A     31  30  96 NW23G30   29.93R WCI  18
$$




USA.gov is the U.S. government's official web portal to all federal, state and local government web resources and services.